Location: ?????????
(41.2286°N, 23.0068°E)
Time: 09:05:32
(UTC+00:00)

Cosmos 1459 Rocket - Pass Details

Date: 08 November 2025
Orbit: 936 x 997 km, 83.0° (Epoch: 04 December)

Event Time Altitude Azimuth Distance (km) Brightness Sun altitude
Rises 03:01:55 0° 353° (N) 3,727 7.0 -23.9°
Reaches altitude 10° 03:04:27 10° 354° (N) 2,774 6.3 -23.4°
Maximum altitude 03:10:52 84° 83° (E) 1,005 4.0 -22.2°
Drops below altitude 10° 03:17:10 10° 172° (S) 2,737 6.5 -21.0°
Sets 03:19:40 0° 173° (S) 3,674 7.2 -20.5°
